Location: Buch
(50.1863°N, 11.0141°E)
Time: 12:12:55
(UTC+00:00)

NOSS 3-2 (C) - Pass Details

Date: 18 January 2020
Orbit: 813 x 1399 km, 63.4° (Epoch: 10 February)

Event Time Altitude Azimuth Distance (km) Brightness Sun altitude
Exits shadow 05:19:37 17° 316° (NW) 2,570 5.2 -16.7°
Maximum altitude 05:25:38 86° 230° (SW) 1,266 4.0 -15.8°
Drops below altitude 10° 05:34:00 10° 142° (SE) 3,402 7.1 -14.5°
Sets 05:36:59 0° 142° (SE) 4,412 7.8 -14.0°
